Volver al catálogo

COSMOS 1390

ActivoMilitarLEO
NORAD 13377·PAYLOAD·🇷🇺 Russia

Lanzado Jul 21, 1982 desde Plesetsk Cosmodrome

Loading…

Próximos Pases (próximas 24 horas)

TLE

ActualizadoSource: Space-Track

Época: Sep 14, 2026, 10:37 UTC

1 13377U 82073C   26257.44251373 -.00000028  00000-0 -71836-4 0  9993
2 13377  74.0130  64.8763 0030960 221.9665 165.3185 12.53379767 20057

Sigue COSMOS 1390 en tiempo real con AllMySat

Download on the App Store